Regional Weather Roundup
Issued by NWS San Diego, CA

Home | Current Version | Previous Version | Text Only | Print | Product List | Glossary On
Versions: 1 2 3 4 5 6 7 8 9 10 11 12 13 14 15 16 17 18 19 20 21 22 23 24 25 26 27 28 29 30 31 32 33 34 35 36 37 38 39 40 41 42 43 44 45 46 47 48 49 50
291
ASUS46 KSGX 240911
RWRSGX

SAN DIEGO HOURLY WEATHER ROUNDUP
NATIONAL WEATHER SERVICE SAN DIEGO CA
100 AM PST TUE JAN 24 2017

NOTE: "FAIR" INDICATES FEW OR NO CLOUDS BELOW 12,000 FEET WITH NO
SIGNIFICANT WEATHER AND/OR OBSTRUCTIONS TO VISIBILITY.

CAZ042-043-060-061-PZZ750-775-241000-

GREATER SAN DIEGO AREA

CITY           SKY/WX    TMP DP  RH WIND       PRES   REMARKS
SAN DIEGO AP   MOCLDY    53  40  61 W9G21     29.97R
NATIONAL CITY    N/A     53  45  74 NW5       29.96R
CHULA VISTA      N/A     51  45  79 W5        29.88R
IMPERIAL BEACH   N/A     54  42  64 W17       29.96S
BROWN FIELD    PTCLDY    48  41  76 W8        29.95R
MIRAMAR MCAS   MOCLDY    51  44  77 VRB5      29.94R
MONTGOMERY FLD CLEAR     50  41  71 W9        29.95R

$$

NORTH SAN DIEGO COUNTY

CITY           SKY/WX    TMP DP  RH WIND       PRES   REMARKS
CAMP PENDLETON MOCLDY   N/A N/A N/A NE5       29.94R
OCEANSIDE AP   MOCLDY    47  46  97 E3        29.93S
OCEANSIDE HBR    N/A     54  45  71 W7        29.96R
VISTA            N/A     45  40  83 CALM      29.92S
CARLSBAD       PTCLDY    47  45  93 E3        29.93R
DEL MAR          N/A     51  46  84 NW3       29.96S
LA JOLLA SCRIP   N/A     53  45  73 W14       29.94R
FALLBROOK        N/A     44  44 100 CALM      29.93S
ESCONDIDO        N/A     45  42  90 S2        29.97R
SAN MARCOS       N/A     44  40  86 E1        29.97R
POWAY            N/A     43  41  92 CALM      29.98R

$$

EAST SAN DIEGO COUNTY

CITY           SKY/WX    TMP DP  RH WIND       PRES   REMARKS
RAMONA         LGT RAIN  40  40 100 CALM      29.92S
SANTEE LAKES     N/A     45  43  92 CALM      29.95R
LA MESA          N/A     44  43  94 CALM      29.90R
JAMUL            N/A     43  42  96 CALM      29.97R
DESCANSO N       N/A     33  32  96 W1        29.91R
CAMPO            N/A     38  37  97 SW9       29.87R WCI  31

$$

ORANGE COUNTY AND THE LOS ANGELES BASIN

CITY           SKY/WX    TMP DP  RH WIND       PRES   REMARKS
JOHN WAYNE AP  CLEAR     45  42  89 CALM      29.93R
LAGUNA BEACH     N/A     44  41  89 NW1       29.88R
LAKE FOREST FR   N/A     42  38  85 CALM      29.84R
HUNTINGTON BCH   N/A     43  42  95 NW1       29.95R
LOS ALAMITOS   FAIR      41  40  97 CALM      29.93R
FULLERTON      CLEAR     41  40  96 CALM      29.92S
LONG BEACH     CLEAR     44  40  85 CALM      29.93R
L.A. AP        PTCLDY    44  38  79 E7        29.93R
L.A. DOWNTOWN  CLEAR     45  41  86 CALM      29.92R

$$

THE INLAND EMPIRE

CITY           SKY/WX    TMP DP  RH WIND       PRES   REMARKS
CORONA         PTCLDY    37  37 100 CALM      29.93R
CHINO          MOCLDY    44  42  93 N3        29.93R
ONTARIO        MOCLDY    42  41  96 N3        29.91S
SAN BERNARDINO CLOUDY    44  38  79 NE5       29.91R
RIVERSIDE AP   CLOUDY    43  42  97 CALM      29.92R
MORENO VALLEY    N/A     42  41  99 SE3       28.02R
MARCH ARB      PTCLDY    40  40 100 SE5       29.90R
HORSETHIEF CYN   N/A     38  34  84 W1        29.94S
PERRIS           N/A     41  40  97 CALM      29.93R
HEMET EAST       N/A     40  35  83 CALM      29.97S
FRENCH VALLEY  NOT AVBL
TEMECULA         N/A     43  42  98 S3        29.97R

$$

SAN BERNARDINO AND RIVERSIDE COUNTY MOUNTAINS

CITY           SKY/WX    TMP DP  RH WIND       PRES   REMARKS
BIG BEAR AP    CLEAR     10   9  92 SW3       29.76S
ANGELUS OAKS     N/A     24  22  91 CALM      29.89S
PINE COVE        N/A     24  24 100 CALM      29.93R

$$

SOUTHERN DESERT INCLUDING THE COACHELLA VALLEY

CITY           SKY/WX    TMP DP  RH WIND       PRES   REMARKS
PALM SPRINGS   CLEAR     41  39  93 CALM      29.84F
PALM DESERT      N/A     42  38  84 CALM        N/A
THERMAL        CLEAR     38  36  92 S6        29.84R WCI  33
BLYTHE         CLEAR     45  40  82 NE3       29.83R
IMPERIAL AP    CLEAR     50  36  58 W14       29.86R
EL CENTRO NAS  CLEAR     49  35  58 SW13      29.89R
YUMA AZ        CLEAR     47  36  65 CALM      29.87R
MEXICALI       CLEAR     50  36  57 W17       29.86R

$$

UPPER DESERT

CITY           SKY/WX    TMP DP  RH WIND       PRES   REMARKS
VICTORVILLE AP CLEAR     34  27  75 SW9       29.85S WCI  26
HESPERIA         N/A     33  30  90 W3        30.06R
PALMDALE       CLEAR     38  29  70 SW7       29.87S WCI  33
LANCASTER      CLEAR     36  30  79 SW12      29.87S WCI  28
EDWARDS AFB    CLEAR     38  28  68 SW6       29.85R WCI  33
DAGGETT        CLEAR     38  30  73 W13       29.85R WCI  30
29 PALMS N     CLEAR     41  27  57 W14       29.89S
NEEDLES        CLEAR     46  35  65 W9        29.79S

$$

REGIONAL REPORTS

CITY           SKY/WX    TMP DP  RH WIND       PRES   REMARKS
SANTA BARBARA  PTCLDY    43  39  86 W8        29.93F
SANDBERG       CLEAR     31  27  85 NW21      29.83S WCI  18
LAS VEGAS NV   CLOUDY    42  32  67 W7        29.72S
PHOENIX AZ     MOCLDY    49  42  77 W7        29.81R
TIJUANA        MOCLDY    46  41  81 CALM      29.97S
ENSENADA NW      N/A     49  32  52 E6        29.96S

$$

OFFSHORE ISLANDS

CITY           SKY/WX    TMP DP  RH WIND       PRES   REMARKS
CATALINA ARPT  MOCLDY    45  39  79 W17       29.90S
SAN NICOLAS IS PTCLDY    47 N/A N/A W13       29.95S

$$

MARINE AND OFFSHORE BUOY REPORTS

STATION/POSITION SKY/WX   TEMP    WIND        PRES    VSBY  SWELL
                          AIR SEA DIR/SP/G                  HT/PER/DIR
                          (F)     (DEG/KT/KT) (MB)    (MI)  (FT/S/D)
TANNER BANKS               54 58  290/ 16/ 21 1015.0F        13/300/14
S CLEMENTE BASIN           54 60  290/ 17/ 21 1014.2R        11/270/15
SAN NICOLAS IS.               57                N/A          13/280/14
SO. S. ROSA ISLA           53 56  280/ 16/ 21 1014.1F        16/280/15
W. S. BARBARA CH           50 56  330/ 19/ 23 1014.4R        16/280/15
M. S. BARBARA CH                  300/ 16/ 19 1014.3F
S. MONICA BASIN            54 58  290/ 21/ 27 1013.0S         8/260/13
S PEDRO CHANNEL               58                N/A           7/270/14
CMP PENDLETON NS              58                N/A           5/240/13
OCEANSIDE OFFSHR              58                N/A           5/260/15
TORREY PINES OTR              59                N/A           7/260/15
POINT LOMA SOUTH              60                N/A          10/270/14

$$





USA.gov is the U.S. government's official web portal to all federal, state and local government web resources and services.